loading
|
Showing default

OPS 9324 (IDSCS 11), 2651

Orbit data source: Space-Track

OPS 9324 (IDSCS 11), 2651 is a payload satellite owned by USAF SSD (US) that was launched on Wed, 18 Jan 1967 UTC via a TITAN IIIC launch vehicle from the Air Force Eastern Test Range (AFETR). Payloads include a variety of satellites, spacecraft, and rockets equipped with specific instruments for various scientific and technological missions. These include communications satellites like Starlink; space stations such as the ISS; scientific satellites like the Hubble; Earth observation satellites from companies like Planet Labs, Umbra, and HawkEye 360; GPS; miniature CubeSats for education and research; and military/defense satellites.

Loading next visibility...
Next conjunction unknown
Loading greatness...
OPS 9324 (IDSCS 11) details
Identifier
2651, 1967-003D
Orbit
Active
Last TLE update8 hours ago
Origin
Flag of USUSAF SSD (US)
ManufacturerPhilco-Ford WDL
MissionNon-operational Defense Communications
Bus & MotorIDCSP, Unknown motor
Mass45 kg wet, 45 kg dry
Launch date (UTC)
1967-01-18 (58 years ago)
Launch vehicle
TITAN IIIC
Launch site
Air Force Eastern Test Range (AFETR)
Object type
Payload
Rocket body
Debris
Shape & HBRIco Poly, 0.9 m
Radar Cross Section0.926 m², Medium (>0.1 m² and < 1m²)

Expand to show TLE details & history

TLE from 8 hours ago
0 OPS 9324 (IDSCS 11)
1  2651U 67003D   24286.44902089 -.00000092  00000-0  00000+0 0  9999
2  2651   7.1074  50.4204 0036023  82.1197 269.5548  1.08105408133678
Epoch: 2024-10-12T10:46Z
Definitive object data (Epoch: 2024-10-12T10:46:35.404Z)
Latitude-1.08171°
Longitude-141.43342°
Altitude33,726.129 km
Speed3.153 km/s
True Right ascension02h 46m 52s
True Declination-1° 04' 50"
Sunlit
Object was in daylight at TLE epoch
Predictive object data (real-time)
Latitude6.40482°
Longitude-17.03856°
Altitude33,602.337 km
Speed3.162 km/s
Apparent Right ascension10h 50m 14s
Apparent Declination0° 37' 18"
Sunlit
Object is in daylight
Predictive observer data (real-time)
Local Sidereal Time12:50:53
Azimuth222.595° SW
Elevation42.073°
Doppler factor1
Orbital elements
Apogee33,869.813 km
Perigee33,580.883 km
Semi-major axis40,103.485 km
Eccentricity0.0036023
Inclination7.1074°
RAAN50.4204°
Arg. of periapsis82.1197°
True anomaly269.14204°
Mean anomaly269.5548°
Eccentric anomaly269.34842°
Mean motion0.27025 °/min
BSTARUnknown
Period1332.09 mins
No data available

OPS 9324 (IDSCS 11) Visibility forecast

Observer location: 39.9160978°, -105.1181434

Span
Click to sort rows by Start time (UTC) header in descending order
Start Az.
Max El. time (UTC)
Max El. Az.
Max El.
End time (UTC)
End Az.
1440 mins2024-10-12 18:24:05.495Z222.58° SW2024-10-13 15:15:05.495Z184.384° SSW38.006°2024-10-13 18:24:05.495Z176.981° S